Weather in Ak"yar

Russia / Republic of Bashkortostan     51°51′49″N   58°13′01″E
temp.,
°C
wind,
m/s
gust,
m/s
humid.,
%
clouds,
%
prec.,
mm/h
press.,
hPa
HPBL,
m
1 march, mon
mon123:00−9nnw119592 0.4 100865
02:00−11wnw2395100 0.1 101153
05:00−13w349599 0.2 101374
08:00−15w339498 0.1 101561
11:00−13w249296 0.1 1016162
14:00−11w349070 0.0 1017311
17:00−10w469182 0.1 1017369
20:00−13w599381 0.1 1019270
2 march, tue
tue223:00−14w489284 0.1 1019204
02:00−16w499381 0.0 1019189
05:00−18w4109390 0.0 1020240
08:00−21w49950 0.0 1020155
11:00−18w6109213 0.0 1020312
14:00−15wsw6118816 0.0 1018362
17:00−14wsw7138950 0.0 1016386
20:00−12sw81588100 0.0 1014500
3 march, wed
wed323:00−10sw71688100 0.0 1012614
02:00−7sw91688100 0.0 1009727
05:00−5sw81592100 0.1 1007773
08:00−4sw7149399 0.3 1005705
11:00−3sw81389100 0.3 1005830
14:00−2sw71189100 0.1 1004899
17:00−2sw61193100 0.2 1003677
20:00−3sw4895100 0.1 1003229
4 march, thu
thu423:00−3sw4896100 0.2 1004284
02:00−5wnw359699 0.2 1003109
05:00−9wnw479192 0.2 1005118
08:00−12wnw48930 0.0 1006126
11:00−8w6128812 0.0 1008492
14:00−7w7118551 0.0 1010795
17:00−9w7128756 0.0 1012526
20:00−11wsw6149050 0.0 1013364
5 march, fri
fri523:00−10wsw8178775 0.0 1014453
02:00−7sw91787100 0.0 1012746
05:00−5sw11198797 0.1 1011887
08:00−3sw11199093 0.2 1010989
11:00−3wsw13218496 0.3 10101071
14:00−2wsw13218797 0.0 10101106
17:00−2wsw11188798 0.1 1012970
20:00−3wsw8168990 0.1 1013722